Location: Newark
(48.8833°N, 0.9236°W)
Time: 08:52:27
(UTC+00:00)

Tiros 1 despin weight - Pass Details

Date: 22 November 2019
Orbit: 594 x 642 km, 48.2° (Epoch: 14 December)

Event Time Altitude Azimuth Distance (km) Brightness Sun altitude
Rises 18:25:49 0° 279° (W) 2,849 ? -20.9°
Reaches altitude 10° 18:28:53 10° 257° (WSW) 1,951 ? -21.4°
Maximum altitude 18:31:33 16° 221° (SW) 1,619 ? -21.8°
Drops below altitude 10° 18:34:13 10° 184° (S) 1,962 ? -22.3°
Enters shadow 18:36:34 - 166° (SSE) 2,630 ? -22.6°
Sets 18:37:19 0° 162° (SSE) 2,874 - -22.8°
